Year,Month,Day,Hour,Minute,Value (Times are PST for temperature in C)
2016,08,09,00,00,17.20
2016,08,09,00,01,17.20
2016,08,09,00,02,17.20
2016,08,09,00,03,17.20
2016,08,09,00,04,17.10
2016,08,09,00,05,17.10
2016,08,09,00,06,17.10
2016,08,09,00,07,17.10
2016,08,09,00,08,17.10
2016,08,09,00,09,17.10
2016,08,09,00,10,17.10
2016,08,09,00,11,17.10
2016,08,09,00,12,17.10
2016,08,09,00,13,17.10
2016,08,09,00,14,17.10
2016,08,09,00,15,17.10
2016,08,09,00,16,17.10
2016,08,09,00,17,17.10
2016,08,09,00,18,17.10
2016,08,09,00,19,17.10
2016,08,09,00,20,17.10
2016,08,09,00,21,17.10
2016,08,09,00,22,17.10
2016,08,09,00,23,17.10
2016,08,09,00,24,17.10
2016,08,09,00,25,17.10
2016,08,09,00,26,17.10
2016,08,09,00,27,17.20
2016,08,09,00,28,17.20
2016,08,09,00,29,17.20
2016,08,09,00,30,17.20
2016,08,09,00,31,17.20
2016,08,09,00,32,17.20
2016,08,09,00,33,17.20
2016,08,09,00,34,17.20
2016,08,09,00,35,17.20
2016,08,09,00,36,17.20
2016,08,09,00,37,17.20
2016,08,09,00,38,17.20
2016,08,09,00,39,17.20
2016,08,09,00,40,17.20
2016,08,09,00,41,17.20
2016,08,09,00,42,17.20
2016,08,09,00,43,17.30
2016,08,09,00,44,17.30
2016,08,09,00,45,17.30
2016,08,09,00,46,17.30
2016,08,09,00,47,17.30
2016,08,09,00,48,17.30
2016,08,09,00,49,17.30
2016,08,09,00,50,17.30
2016,08,09,00,51,17.30
2016,08,09,00,52,17.30
2016,08,09,00,53,17.30
2016,08,09,00,54,17.30
2016,08,09,00,55,17.30
2016,08,09,00,56,17.30
2016,08,09,00,57,17.30
2016,08,09,00,58,17.30
2016,08,09,00,59,17.40
2016,08,09,01,00,17.40
2016,08,09,01,01,17.40
2016,08,09,01,02,17.40
2016,08,09,01,03,17.40
2016,08,09,01,04,17.40
2016,08,09,01,05,17.40
2016,08,09,01,06,17.40
2016,08,09,01,07,17.40
2016,08,09,01,08,17.40
2016,08,09,01,09,17.40
2016,08,09,01,10,17.40
2016,08,09,01,11,17.40
2016,08,09,01,12,17.40
2016,08,09,01,13,17.40
2016,08,09,01,14,17.40
2016,08,09,01,15,17.40
2016,08,09,01,16,17.40
2016,08,09,01,17,17.40
2016,08,09,01,18,17.40
2016,08,09,01,19,17.40
2016,08,09,01,20,17.40
2016,08,09,01,21,17.40
2016,08,09,01,22,17.40
2016,08,09,01,23,17.40
2016,08,09,01,24,17.40
2016,08,09,01,25,17.40
2016,08,09,01,26,17.40
2016,08,09,01,27,17.30
2016,08,09,01,28,17.30
2016,08,09,01,29,17.30
2016,08,09,01,30,17.30
2016,08,09,01,31,17.30
2016,08,09,01,32,17.30
2016,08,09,01,33,17.30
2016,08,09,01,34,17.30
2016,08,09,01,35,17.30
2016,08,09,01,36,17.30
2016,08,09,01,37,17.30
2016,08,09,01,38,17.30
2016,08,09,01,39,17.30
2016,08,09,01,40,17.30
2016,08,09,01,41,17.30
2016,08,09,01,42,17.30
2016,08,09,01,43,17.30
2016,08,09,01,44,17.30
2016,08,09,01,45,17.30
2016,08,09,01,46,17.30
2016,08,09,01,47,17.30
2016,08,09,01,48,17.30
2016,08,09,01,49,17.30
2016,08,09,01,50,17.30
2016,08,09,01,51,17.30
2016,08,09,01,52,17.30
2016,08,09,01,53,17.30
2016,08,09,01,54,17.20
2016,08,09,01,55,17.20
2016,08,09,01,56,17.20
2016,08,09,01,57,17.10
2016,08,09,01,58,17.10
2016,08,09,01,59,17.00
2016,08,09,02,00,17.00
2016,08,09,02,01,16.90
2016,08,09,02,02,16.80
2016,08,09,02,03,16.80
2016,08,09,02,04,16.70
2016,08,09,02,05,16.60
2016,08,09,02,06,16.60
2016,08,09,02,07,16.60
2016,08,09,02,08,16.50
2016,08,09,02,09,16.50
2016,08,09,02,10,16.40
2016,08,09,02,11,16.40
2016,08,09,02,12,16.40
2016,08,09,02,13,16.40
2016,08,09,02,14,16.30
2016,08,09,02,15,16.30
2016,08,09,02,16,16.30
2016,08,09,02,17,16.20
2016,08,09,02,18,16.20
2016,08,09,02,19,16.10
2016,08,09,02,20,16.10
2016,08,09,02,21,16.00
2016,08,09,02,22,16.00
2016,08,09,02,23,16.00
2016,08,09,02,24,15.90
2016,08,09,02,25,15.90
2016,08,09,02,26,15.90
2016,08,09,02,27,15.90
2016,08,09,02,28,15.90
2016,08,09,02,29,15.90
2016,08,09,02,30,15.90
2016,08,09,02,31,15.90
2016,08,09,02,32,15.90
2016,08,09,02,33,15.90
2016,08,09,02,34,15.90
2016,08,09,02,35,15.90
2016,08,09,02,36,15.90
2016,08,09,02,37,15.90
2016,08,09,02,38,15.90
2016,08,09,02,39,15.90
2016,08,09,02,40,15.90
2016,08,09,02,41,15.90
2016,08,09,02,42,15.90
2016,08,09,02,43,15.90
2016,08,09,02,44,15.90
2016,08,09,02,45,15.90
2016,08,09,02,46,15.90
2016,08,09,02,47,15.90
2016,08,09,02,48,16.00
2016,08,09,02,49,16.00
2016,08,09,02,50,16.00
2016,08,09,02,51,16.00
2016,08,09,02,52,16.10
2016,08,09,02,53,16.10
2016,08,09,02,54,16.10
2016,08,09,02,55,16.10
2016,08,09,02,56,16.10
2016,08,09,02,57,16.20
2016,08,09,02,58,16.20
2016,08,09,02,59,16.20
2016,08,09,03,00,16.20
2016,08,09,03,01,16.20
2016,08,09,03,02,16.20
2016,08,09,03,03,16.20
2016,08,09,03,04,16.20
2016,08,09,03,05,16.20
2016,08,09,03,06,16.20
2016,08,09,03,07,16.20
2016,08,09,03,08,16.20
2016,08,09,03,09,16.20
2016,08,09,03,10,16.20
2016,08,09,03,11,16.20
2016,08,09,03,12,16.30
2016,08,09,03,13,16.20
2016,08,09,03,14,16.20
2016,08,09,03,15,16.20
2016,08,09,03,16,16.20
2016,08,09,03,17,16.20
2016,08,09,03,18,16.20
2016,08,09,03,19,16.20
2016,08,09,03,20,16.20
2016,08,09,03,21,16.20
2016,08,09,03,22,16.20
2016,08,09,03,23,16.20
2016,08,09,03,24,16.20
2016,08,09,03,25,16.20
2016,08,09,03,26,16.20
2016,08,09,03,27,16.20
2016,08,09,03,28,16.20
2016,08,09,03,29,16.20
2016,08,09,03,30,16.30
2016,08,09,03,31,16.30
2016,08,09,03,32,16.30
2016,08,09,03,33,16.30
2016,08,09,03,34,16.30
2016,08,09,03,35,16.30
2016,08,09,03,36,16.30
2016,08,09,03,37,16.30
2016,08,09,03,38,16.30
2016,08,09,03,39,16.30
2016,08,09,03,40,16.30
2016,08,09,03,41,16.30
2016,08,09,03,42,16.30
2016,08,09,03,43,16.30
2016,08,09,03,44,16.30
2016,08,09,03,45,16.30
2016,08,09,03,46,16.30
2016,08,09,03,47,16.30
2016,08,09,03,48,16.30
2016,08,09,03,49,16.30
2016,08,09,03,50,16.30
2016,08,09,03,51,16.30
2016,08,09,03,52,16.30
2016,08,09,03,53,16.30
2016,08,09,03,54,16.30
2016,08,09,03,55,16.30
2016,08,09,03,56,16.20
2016,08,09,03,57,16.20
2016,08,09,03,58,16.10
2016,08,09,03,59,16.00
2016,08,09,04,00,16.00
2016,08,09,04,01,15.90
2016,08,09,04,02,15.80
2016,08,09,04,03,15.80
2016,08,09,04,04,15.70
2016,08,09,04,05,15.60
2016,08,09,04,06,15.60
2016,08,09,04,07,15.60
2016,08,09,04,08,15.50
2016,08,09,04,09,15.50
2016,08,09,04,10,15.50
2016,08,09,04,11,15.40
2016,08,09,04,12,15.40
2016,08,09,04,13,15.40
2016,08,09,04,14,15.40
2016,08,09,04,15,15.40
2016,08,09,04,16,15.40
2016,08,09,04,17,15.40
2016,08,09,04,18,15.40
2016,08,09,04,19,15.40
2016,08,09,04,20,15.40
2016,08,09,04,21,15.40
2016,08,09,04,22,15.40
2016,08,09,04,23,15.50
2016,08,09,04,24,15.50
2016,08,09,04,25,15.50
2016,08,09,04,26,15.50
2016,08,09,04,27,15.50
2016,08,09,04,28,15.50
2016,08,09,04,29,15.60
2016,08,09,04,30,15.60
2016,08,09,04,31,15.60
2016,08,09,04,32,15.60
2016,08,09,04,33,15.60
2016,08,09,04,34,15.60
2016,08,09,04,35,15.60
2016,08,09,04,36,15.70
2016,08,09,04,37,15.70
2016,08,09,04,38,15.70
2016,08,09,04,39,15.70
2016,08,09,04,40,15.70
2016,08,09,04,41,15.70
2016,08,09,04,42,15.70
2016,08,09,04,43,15.80
2016,08,09,04,44,15.80
2016,08,09,04,45,15.80
2016,08,09,04,46,15.80
2016,08,09,04,47,15.80
2016,08,09,04,48,15.80
2016,08,09,04,49,15.80
2016,08,09,04,50,15.80
2016,08,09,04,51,15.80
2016,08,09,04,52,15.80
2016,08,09,04,53,15.70
2016,08,09,04,54,15.70
2016,08,09,04,55,15.70
2016,08,09,04,56,15.70
2016,08,09,04,57,15.70
2016,08,09,04,58,15.70
2016,08,09,04,59,15.70
2016,08,09,05,00,15.60
2016,08,09,05,01,15.60
2016,08,09,05,02,15.60
2016,08,09,05,03,15.60
2016,08,09,05,04,15.60
2016,08,09,05,05,15.60
2016,08,09,05,06,15.60
2016,08,09,05,07,15.60
2016,08,09,05,08,15.50
2016,08,09,05,09,15.50
2016,08,09,05,10,15.50
2016,08,09,05,11,15.50
2016,08,09,05,12,15.50
2016,08,09,05,13,15.50
2016,08,09,05,14,15.50
2016,08,09,05,15,15.50
2016,08,09,05,16,15.50
2016,08,09,05,17,15.50
2016,08,09,05,18,15.50
2016,08,09,05,19,15.50
2016,08,09,05,20,15.50
2016,08,09,05,21,15.50
2016,08,09,05,22,15.50
2016,08,09,05,23,15.60
2016,08,09,05,24,15.60
2016,08,09,05,25,15.60
2016,08,09,05,26,15.60
2016,08,09,05,27,15.60
2016,08,09,05,28,15.60
2016,08,09,05,29,15.60
2016,08,09,05,30,15.60
2016,08,09,05,31,15.70
2016,08,09,05,32,15.70
2016,08,09,05,33,15.70
2016,08,09,05,34,15.70
2016,08,09,05,35,15.70
2016,08,09,05,36,15.70
2016,08,09,05,37,15.70
2016,08,09,05,38,15.70
2016,08,09,05,39,15.70
2016,08,09,05,40,15.70
2016,08,09,05,41,15.70
2016,08,09,05,42,15.70
2016,08,09,05,43,15.70
2016,08,09,05,44,15.70
2016,08,09,05,45,15.70
2016,08,09,05,46,15.70
2016,08,09,05,47,15.70
2016,08,09,05,48,15.70
2016,08,09,05,49,15.70
2016,08,09,05,50,15.70
2016,08,09,05,51,15.70
2016,08,09,05,52,15.70
2016,08,09,05,53,15.70
2016,08,09,05,54,15.70
2016,08,09,05,55,15.70
2016,08,09,05,56,15.70
2016,08,09,05,57,15.70
2016,08,09,05,58,15.70
2016,08,09,05,59,15.70
2016,08,09,06,00,15.70
2016,08,09,06,01,15.60
2016,08,09,06,02,15.60
2016,08,09,06,03,15.60
2016,08,09,06,04,15.60
2016,08,09,06,05,15.50
2016,08,09,06,06,15.50
2016,08,09,06,07,15.50
2016,08,09,06,08,15.40
2016,08,09,06,09,15.40
2016,08,09,06,10,15.40
2016,08,09,06,11,15.40
2016,08,09,06,12,15.40
2016,08,09,06,13,15.40
2016,08,09,06,14,15.40
2016,08,09,06,15,15.40
2016,08,09,06,16,15.40
2016,08,09,06,17,15.40
2016,08,09,06,18,15.40
2016,08,09,06,19,15.40
2016,08,09,06,20,15.40
2016,08,09,06,21,15.40
2016,08,09,06,22,15.40
2016,08,09,06,23,15.50
2016,08,09,06,24,15.40
2016,08,09,06,25,15.40
2016,08,09,06,26,15.40
2016,08,09,06,27,15.40
2016,08,09,06,28,15.40
2016,08,09,06,29,15.40
2016,08,09,06,30,15.40
2016,08,09,06,31,15.40
2016,08,09,06,32,15.40
2016,08,09,06,33,15.40
2016,08,09,06,34,15.40
2016,08,09,06,35,15.40
2016,08,09,06,36,15.40
2016,08,09,06,37,15.40
2016,08,09,06,38,15.40
2016,08,09,06,39,15.40
2016,08,09,06,40,15.40
2016,08,09,06,41,15.40
2016,08,09,06,42,15.40
2016,08,09,06,43,15.40
2016,08,09,06,44,15.40
2016,08,09,06,45,15.40
2016,08,09,06,46,15.40
2016,08,09,06,47,15.40
2016,08,09,06,48,15.40
2016,08,09,06,49,15.40
2016,08,09,06,50,15.40
2016,08,09,06,51,15.40
2016,08,09,06,52,15.40
2016,08,09,06,53,15.40
2016,08,09,06,54,15.40
2016,08,09,06,55,15.40
2016,08,09,06,56,15.40
2016,08,09,06,57,15.40
2016,08,09,06,58,15.40
2016,08,09,06,59,15.40
2016,08,09,07,00,15.40
2016,08,09,07,01,15.40
2016,08,09,07,02,15.40
2016,08,09,07,03,15.40
2016,08,09,07,04,15.40
2016,08,09,07,05,15.40
2016,08,09,07,06,15.40
2016,08,09,07,07,15.40
2016,08,09,07,08,15.40
2016,08,09,07,09,15.40
2016,08,09,07,10,15.40
2016,08,09,07,11,15.40
2016,08,09,07,12,15.40
2016,08,09,07,13,15.50
2016,08,09,07,14,15.50
2016,08,09,07,15,15.50
2016,08,09,07,16,15.50
2016,08,09,07,17,15.50
2016,08,09,07,18,15.50
2016,08,09,07,19,15.50
2016,08,09,07,20,15.50
2016,08,09,07,21,15.50
2016,08,09,07,22,15.50
2016,08,09,07,23,15.40
2016,08,09,07,24,15.40
2016,08,09,07,25,15.40
2016,08,09,07,26,15.40
2016,08,09,07,27,15.40
2016,08,09,07,28,15.40
2016,08,09,07,29,15.40
2016,08,09,07,30,15.40
2016,08,09,07,31,15.40
2016,08,09,07,32,15.50
2016,08,09,07,33,15.50
2016,08,09,07,34,15.50
2016,08,09,07,35,15.50
2016,08,09,07,36,15.50
2016,08,09,07,37,15.60
2016,08,09,07,38,15.60
2016,08,09,07,39,15.60
2016,08,09,07,40,15.60
2016,08,09,07,41,15.60
2016,08,09,07,42,15.60
2016,08,09,07,43,15.60
2016,08,09,07,44,15.70
2016,08,09,07,45,15.70
2016,08,09,07,46,15.70
2016,08,09,07,47,15.70
2016,08,09,07,48,15.70
2016,08,09,07,49,15.70
2016,08,09,07,50,15.70
2016,08,09,07,51,15.70
2016,08,09,07,52,15.70
2016,08,09,07,53,15.70
2016,08,09,07,54,15.80
2016,08,09,07,55,15.80
2016,08,09,07,56,15.80
2016,08,09,07,57,15.80
2016,08,09,07,58,15.80
2016,08,09,07,59,15.80
2016,08,09,08,00,15.80
2016,08,09,08,01,15.90
2016,08,09,08,02,15.90
2016,08,09,08,03,15.90
2016,08,09,08,04,16.00
2016,08,09,08,05,16.00
2016,08,09,08,06,16.00
2016,08,09,08,07,16.00
2016,08,09,08,08,16.00
2016,08,09,08,09,16.10
2016,08,09,08,10,16.10
2016,08,09,08,11,16.10
2016,08,09,08,12,16.10
2016,08,09,08,13,16.10
2016,08,09,08,14,16.00
2016,08,09,08,15,16.00
2016,08,09,08,16,16.00
2016,08,09,08,17,16.00
2016,08,09,08,18,15.90
2016,08,09,08,19,15.90
2016,08,09,08,20,16.00
2016,08,09,08,21,16.00
2016,08,09,08,22,16.00
2016,08,09,08,23,15.90
2016,08,09,08,24,15.90
2016,08,09,08,25,15.90
2016,08,09,08,26,15.90
2016,08,09,08,27,15.90
2016,08,09,08,28,15.90
2016,08,09,08,29,15.90
2016,08,09,08,30,15.90
2016,08,09,08,31,15.90
2016,08,09,08,32,15.90
2016,08,09,08,33,16.00
2016,08,09,08,34,15.90
2016,08,09,08,35,15.90
2016,08,09,08,36,15.90
2016,08,09,08,37,15.90
2016,08,09,08,38,15.90
2016,08,09,08,39,15.90
2016,08,09,08,40,15.90
2016,08,09,08,41,15.90
2016,08,09,08,42,15.90
2016,08,09,08,43,15.90
2016,08,09,08,44,15.90
2016,08,09,08,45,15.90
2016,08,09,08,46,15.90
2016,08,09,08,47,15.90
2016,08,09,08,48,15.90
2016,08,09,08,49,16.00
2016,08,09,08,50,16.00
2016,08,09,08,51,16.00
2016,08,09,08,52,16.00
2016,08,09,08,53,16.00
2016,08,09,08,54,16.00
2016,08,09,08,55,16.10
2016,08,09,08,56,16.10
2016,08,09,08,57,16.10
2016,08,09,08,58,16.00
2016,08,09,08,59,16.00
2016,08,09,09,00,16.00
2016,08,09,09,01,16.00
2016,08,09,09,02,15.90
2016,08,09,09,03,15.90
2016,08,09,09,04,15.90
2016,08,09,09,05,15.90
2016,08,09,09,06,15.90
2016,08,09,09,07,15.90
2016,08,09,09,08,16.00
2016,08,09,09,09,16.00
2016,08,09,09,10,16.00
2016,08,09,09,11,16.00
2016,08,09,09,12,16.00
2016,08,09,09,13,16.00
2016,08,09,09,14,16.10
2016,08,09,09,15,16.10
2016,08,09,09,16,16.10
2016,08,09,09,17,16.20
2016,08,09,09,18,16.20
2016,08,09,09,19,16.20
2016,08,09,09,20,16.20
2016,08,09,09,21,16.20
2016,08,09,09,22,16.30
2016,08,09,09,23,16.30
2016,08,09,09,24,16.30
2016,08,09,09,25,16.30
2016,08,09,09,26,16.30
2016,08,09,09,27,16.40
2016,08,09,09,28,16.40
2016,08,09,09,29,16.40
2016,08,09,09,30,16.40
2016,08,09,09,31,16.40
2016,08,09,09,32,16.50
2016,08,09,09,33,16.50
2016,08,09,09,34,16.50
2016,08,09,09,35,16.60
2016,08,09,09,36,16.60
2016,08,09,09,37,16.60
2016,08,09,09,38,16.60
2016,08,09,09,39,16.60
2016,08,09,09,40,16.60
2016,08,09,09,41,16.60
2016,08,09,09,42,16.60
2016,08,09,09,43,16.70
2016,08,09,09,44,16.70
2016,08,09,09,45,16.70
2016,08,09,09,46,16.80
2016,08,09,09,47,16.80
2016,08,09,09,48,16.80
2016,08,09,09,49,16.80
2016,08,09,09,50,16.80
2016,08,09,09,51,16.80
2016,08,09,09,52,16.90
2016,08,09,09,53,16.90
2016,08,09,09,54,17.00
2016,08,09,09,55,17.00
2016,08,09,09,56,17.10
2016,08,09,09,57,17.10
2016,08,09,09,58,17.10
2016,08,09,09,59,17.10
2016,08,09,10,00,17.20
2016,08,09,10,01,17.20
2016,08,09,10,02,17.20
2016,08,09,10,03,17.10
2016,08,09,10,04,17.10
2016,08,09,10,05,17.10
2016,08,09,10,06,17.10
2016,08,09,10,07,17.10
2016,08,09,10,08,17.10
2016,08,09,10,09,17.10
2016,08,09,10,10,17.10
2016,08,09,10,11,17.10
2016,08,09,10,12,17.10
2016,08,09,10,13,17.10
2016,08,09,10,14,17.10
2016,08,09,10,15,17.10
2016,08,09,10,16,17.20
2016,08,09,10,17,17.20
2016,08,09,10,18,17.20
2016,08,09,10,19,17.20
2016,08,09,10,20,17.30
2016,08,09,10,21,17.30
2016,08,09,10,22,17.30
2016,08,09,10,23,17.40
2016,08,09,10,24,17.40
2016,08,09,10,25,17.40
2016,08,09,10,26,17.50
2016,08,09,10,27,17.60
2016,08,09,10,28,17.60
2016,08,09,10,29,17.60
2016,08,09,10,30,17.60
2016,08,09,10,31,17.60
2016,08,09,10,32,17.60
2016,08,09,10,33,17.60
2016,08,09,10,34,17.60
2016,08,09,10,35,17.60
2016,08,09,10,36,17.70
2016,08,09,10,37,17.70
2016,08,09,10,38,17.80
2016,08,09,10,39,17.80
2016,08,09,10,40,17.90
2016,08,09,10,41,17.90
2016,08,09,10,42,17.90
2016,08,09,10,43,18.00
2016,08,09,10,44,18.00
2016,08,09,10,45,18.10
2016,08,09,10,46,18.10
2016,08,09,10,47,18.10
2016,08,09,10,48,18.20
2016,08,09,10,49,18.20
2016,08,09,10,50,18.10
2016,08,09,10,51,18.10
2016,08,09,10,52,18.10
2016,08,09,10,53,18.10
2016,08,09,10,54,18.10
2016,08,09,10,55,18.10
2016,08,09,10,56,18.10
2016,08,09,10,57,18.10
2016,08,09,10,58,18.20
2016,08,09,10,59,18.30
2016,08,09,11,00,18.30
2016,08,09,11,01,18.40
2016,08,09,11,02,18.40
2016,08,09,11,03,18.40
2016,08,09,11,04,18.50
2016,08,09,11,05,18.50
2016,08,09,11,06,18.50
2016,08,09,11,07,18.50
2016,08,09,11,08,18.50
2016,08,09,11,09,18.60
2016,08,09,11,10,18.60
2016,08,09,11,11,18.60
2016,08,09,11,12,18.60
2016,08,09,11,13,18.70
2016,08,09,11,14,18.70
2016,08,09,11,15,18.60
2016,08,09,11,16,18.50
2016,08,09,11,17,18.50
2016,08,09,11,18,18.40
2016,08,09,11,19,18.40
2016,08,09,11,20,18.40
2016,08,09,11,21,18.40
2016,08,09,11,22,18.40
2016,08,09,11,23,18.40
2016,08,09,11,24,18.40
2016,08,09,11,25,18.40
2016,08,09,11,26,18.40
2016,08,09,11,27,18.40
2016,08,09,11,28,18.40
2016,08,09,11,29,18.40
2016,08,09,11,30,18.50
2016,08,09,11,31,18.50
2016,08,09,11,32,18.50
2016,08,09,11,33,18.60
2016,08,09,11,34,18.60
2016,08,09,11,35,18.70
2016,08,09,11,36,18.70
2016,08,09,11,37,18.80
2016,08,09,11,38,18.80
2016,08,09,11,39,18.90
2016,08,09,11,40,18.90
2016,08,09,11,41,19.00
2016,08,09,11,42,19.10
2016,08,09,11,43,19.10
2016,08,09,11,44,19.10
2016,08,09,11,45,19.10
2016,08,09,11,46,19.20
2016,08,09,11,47,19.20
2016,08,09,11,48,19.20
2016,08,09,11,49,19.20
2016,08,09,11,50,19.20
2016,08,09,11,51,19.20
2016,08,09,11,52,19.20
2016,08,09,11,53,19.20
2016,08,09,11,54,19.10
2016,08,09,11,55,19.10
2016,08,09,11,56,19.00
2016,08,09,11,57,19.00
2016,08,09,11,58,19.00
2016,08,09,11,59,19.00
2016,08,09,12,00,19.00
2016,08,09,12,01,19.10
2016,08,09,12,02,19.10
2016,08,09,12,03,19.10
2016,08,09,12,04,19.20
2016,08,09,12,05,19.20
2016,08,09,12,06,19.20
2016,08,09,12,07,19.30
2016,08,09,12,08,19.30
2016,08,09,12,09,19.40
2016,08,09,12,10,19.40
2016,08,09,12,11,19.50
2016,08,09,12,12,19.60
2016,08,09,12,13,19.60
2016,08,09,12,14,19.60
2016,08,09,12,15,19.50
2016,08,09,12,16,19.50
2016,08,09,12,17,19.60
2016,08,09,12,18,19.60
2016,08,09,12,19,19.60
2016,08,09,12,20,19.60
2016,08,09,12,21,19.70
2016,08,09,12,22,19.70
2016,08,09,12,23,19.60
2016,08,09,12,24,19.60
2016,08,09,12,25,19.60
2016,08,09,12,26,19.70
2016,08,09,12,27,19.60
2016,08,09,12,28,19.60
2016,08,09,12,29,19.60
2016,08,09,12,30,19.60
2016,08,09,12,31,19.70
2016,08,09,12,32,19.70
2016,08,09,12,33,19.70
2016,08,09,12,34,19.70
2016,08,09,12,35,19.80
2016,08,09,12,36,19.80
2016,08,09,12,37,19.80
2016,08,09,12,38,19.80
2016,08,09,12,39,19.70
2016,08,09,12,40,19.70
2016,08,09,12,41,19.70
2016,08,09,12,42,19.70
2016,08,09,12,43,19.70
2016,08,09,12,44,19.80
2016,08,09,12,45,19.80
2016,08,09,12,46,19.90
2016,08,09,12,47,19.90
2016,08,09,12,48,19.90
2016,08,09,12,49,19.90
2016,08,09,12,50,19.90
2016,08,09,12,51,19.90
2016,08,09,12,52,20.00
2016,08,09,12,53,20.00
2016,08,09,12,54,20.10
2016,08,09,12,55,20.20
2016,08,09,12,56,20.30
2016,08,09,12,57,20.30
2016,08,09,12,58,20.40
2016,08,09,12,59,20.40
2016,08,09,13,00,20.30
2016,08,09,13,01,20.30
2016,08,09,13,02,20.30
2016,08,09,13,03,20.30
2016,08,09,13,04,20.30
2016,08,09,13,05,20.20
2016,08,09,13,06,20.10
2016,08,09,13,07,20.10
2016,08,09,13,08,20.10
2016,08,09,13,09,20.10
2016,08,09,13,10,20.10
2016,08,09,13,11,20.10
2016,08,09,13,12,20.10
2016,08,09,13,13,20.10
2016,08,09,13,14,20.10
2016,08,09,13,15,20.10
2016,08,09,13,16,20.10
2016,08,09,13,17,20.10
2016,08,09,13,18,20.20
2016,08,09,13,19,20.20
2016,08,09,13,20,20.30
2016,08,09,13,21,20.40
2016,08,09,13,22,20.40
2016,08,09,13,23,20.30
2016,08,09,13,24,20.30
2016,08,09,13,25,20.30
2016,08,09,13,26,20.40
2016,08,09,13,27,20.30
2016,08,09,13,28,20.20
2016,08,09,13,29,20.20
2016,08,09,13,30,20.10
2016,08,09,13,31,20.00
2016,08,09,13,32,19.90
2016,08,09,13,33,19.80
2016,08,09,13,34,19.80
2016,08,09,13,35,19.70
2016,08,09,13,36,19.70
2016,08,09,13,37,19.70
2016,08,09,13,38,19.80
2016,08,09,13,39,19.80
2016,08,09,13,40,19.90
2016,08,09,13,41,20.00
2016,08,09,13,42,20.00
2016,08,09,13,43,20.00
2016,08,09,13,44,20.00
2016,08,09,13,45,20.00
2016,08,09,13,46,20.00
2016,08,09,13,47,19.90
2016,08,09,13,48,19.90
2016,08,09,13,49,19.90
2016,08,09,13,50,19.80
2016,08,09,13,51,19.80
2016,08,09,13,52,19.80
2016,08,09,13,53,19.90
2016,08,09,13,54,19.90
2016,08,09,13,55,19.90
2016,08,09,13,56,19.90
2016,08,09,13,57,19.90
2016,08,09,13,58,19.90
2016,08,09,13,59,19.90
2016,08,09,14,00,19.90
2016,08,09,14,01,20.00
2016,08,09,14,02,20.00
2016,08,09,14,03,19.90
2016,08,09,14,04,19.90
2016,08,09,14,05,19.90
2016,08,09,14,06,19.90
2016,08,09,14,07,19.80
2016,08,09,14,08,19.80
2016,08,09,14,09,19.80
2016,08,09,14,10,19.80
2016,08,09,14,11,19.80
2016,08,09,14,12,19.80
2016,08,09,14,13,19.80
2016,08,09,14,14,19.70
2016,08,09,14,15,19.70
2016,08,09,14,16,19.70
2016,08,09,14,17,19.70
2016,08,09,14,18,19.70
2016,08,09,14,19,19.70
2016,08,09,14,20,19.70
2016,08,09,14,21,19.70
2016,08,09,14,22,19.70
2016,08,09,14,23,19.70
2016,08,09,14,24,19.60
2016,08,09,14,25,19.60
2016,08,09,14,26,19.60
2016,08,09,14,27,19.50
2016,08,09,14,28,19.50
2016,08,09,14,29,19.60
2016,08,09,14,30,19.60
2016,08,09,14,31,19.60
2016,08,09,14,32,19.50
2016,08,09,14,33,19.40
2016,08,09,14,34,19.40
2016,08,09,14,35,19.40
2016,08,09,14,36,19.30
2016,08,09,14,37,19.30
2016,08,09,14,38,19.40
2016,08,09,14,39,19.50
2016,08,09,14,40,19.50
2016,08,09,14,41,19.60
2016,08,09,14,42,19.60
2016,08,09,14,43,19.50
2016,08,09,14,44,19.50
2016,08,09,14,45,19.40
2016,08,09,14,46,19.30
2016,08,09,14,47,19.30
2016,08,09,14,48,19.20
2016,08,09,14,49,19.20
2016,08,09,14,50,19.20
2016,08,09,14,51,19.20
2016,08,09,14,52,19.20
2016,08,09,14,53,19.20
2016,08,09,14,54,19.20
2016,08,09,14,55,19.20
2016,08,09,14,56,19.20
2016,08,09,14,57,19.20
2016,08,09,14,58,19.20
2016,08,09,14,59,19.20
2016,08,09,15,00,19.20
2016,08,09,15,01,19.20
2016,08,09,15,02,19.20
2016,08,09,15,03,19.20
2016,08,09,15,04,19.20
2016,08,09,15,05,19.20
2016,08,09,15,06,19.10
2016,08,09,15,07,19.10
2016,08,09,15,08,19.10
2016,08,09,15,09,19.20
2016,08,09,15,10,19.20
2016,08,09,15,11,19.20
2016,08,09,15,12,19.20
2016,08,09,15,13,19.20
2016,08,09,15,14,19.20
2016,08,09,15,15,19.20
2016,08,09,15,16,19.20
2016,08,09,15,17,19.20
2016,08,09,15,18,19.20
2016,08,09,15,19,19.20
2016,08,09,15,20,19.20
2016,08,09,15,21,19.20
2016,08,09,15,22,19.20
2016,08,09,15,23,19.20
2016,08,09,15,24,19.20
2016,08,09,15,25,19.20
2016,08,09,15,26,19.20
2016,08,09,15,27,19.20
2016,08,09,15,28,19.10
2016,08,09,15,29,19.10
2016,08,09,15,30,19.00
2016,08,09,15,31,19.00
2016,08,09,15,32,18.90
2016,08,09,15,33,18.90
2016,08,09,15,34,18.90
2016,08,09,15,35,18.90
2016,08,09,15,36,18.90
2016,08,09,15,37,18.90
2016,08,09,15,38,18.90
2016,08,09,15,39,18.90
2016,08,09,15,40,18.90
2016,08,09,15,41,19.00
2016,08,09,15,42,19.00
2016,08,09,15,43,19.00
2016,08,09,15,44,19.00
2016,08,09,15,45,19.00
2016,08,09,15,46,19.10
2016,08,09,15,47,19.10
2016,08,09,15,48,19.10
2016,08,09,15,49,19.10
2016,08,09,15,50,19.20
2016,08,09,15,51,19.20
2016,08,09,15,52,19.20
2016,08,09,15,53,19.30
2016,08,09,15,54,19.30
2016,08,09,15,55,19.30
2016,08,09,15,56,19.30
2016,08,09,15,57,19.30
2016,08,09,15,58,19.20
2016,08,09,15,59,19.20
2016,08,09,16,00,19.20
2016,08,09,16,01,19.20
2016,08,09,16,02,19.20
2016,08,09,16,03,19.30
2016,08,09,16,04,19.30
2016,08,09,16,05,19.30
2016,08,09,16,06,19.30
2016,08,09,16,07,19.30
2016,08,09,16,08,19.30
2016,08,09,16,09,19.30
2016,08,09,16,10,19.30
2016,08,09,16,11,19.30
2016,08,09,16,12,19.20
2016,08,09,16,13,19.20
2016,08,09,16,14,19.10
2016,08,09,16,15,19.10
2016,08,09,16,16,19.10
2016,08,09,16,17,19.00
2016,08,09,16,18,19.00
2016,08,09,16,19,19.00
2016,08,09,16,20,19.00
2016,08,09,16,21,19.00
2016,08,09,16,22,19.00
2016,08,09,16,23,19.00
2016,08,09,16,24,19.00
2016,08,09,16,25,19.00
2016,08,09,16,26,19.00
2016,08,09,16,27,19.00
2016,08,09,16,28,19.10
2016,08,09,16,29,19.00
2016,08,09,16,30,19.00
2016,08,09,16,31,19.00
2016,08,09,16,32,19.10
2016,08,09,16,33,19.10
2016,08,09,16,34,19.10
2016,08,09,16,35,19.10
2016,08,09,16,36,19.10
2016,08,09,16,37,19.00
2016,08,09,16,38,19.00
2016,08,09,16,39,19.10
2016,08,09,16,40,19.00
2016,08,09,16,41,19.00
2016,08,09,16,42,19.00
2016,08,09,16,43,19.00
2016,08,09,16,44,19.10
2016,08,09,16,45,19.10
2016,08,09,16,46,19.10
2016,08,09,16,47,19.00
2016,08,09,16,48,19.00
2016,08,09,16,49,18.90
2016,08,09,16,50,18.90
2016,08,09,16,51,18.90
2016,08,09,16,52,18.90
2016,08,09,16,53,18.80
2016,08,09,16,54,18.80
2016,08,09,16,55,18.80
2016,08,09,16,56,18.70
2016,08,09,16,57,18.70
2016,08,09,16,58,18.70
2016,08,09,16,59,18.60
2016,08,09,17,00,18.60
2016,08,09,17,01,18.60
2016,08,09,17,02,18.60
2016,08,09,17,03,18.60
2016,08,09,17,04,18.60
2016,08,09,17,05,18.60
2016,08,09,17,06,18.60
2016,08,09,17,07,18.60
2016,08,09,17,08,18.60
2016,08,09,17,09,18.60
2016,08,09,17,10,18.60
2016,08,09,17,11,18.60
2016,08,09,17,12,18.70
2016,08,09,17,13,18.70
2016,08,09,17,14,18.70
2016,08,09,17,15,18.70
2016,08,09,17,16,18.70
2016,08,09,17,17,18.70
2016,08,09,17,18,18.70
2016,08,09,17,19,18.60